Regional Weather Roundup
Issued by NWS

Home | Current Version | Previous Version | Text Only | Print | Product List | Glossary On
Versions: 1 2 3 4 5 6 7 8 9 10 11 12 13 14 15 16 17 18 19 20 21 22 23 24 25 26 27 28 29 30 31 32 33 34 35 36 37 38 39 40 41 42 43 44 45 46 47 48 49 50
000
ASUS43 KLOT 280310
RWRIL

ILLINOIS REGIONAL WEATHER ROUNDUP
NATIONAL WEATHER SERVICE CHICAGO/ROMEOVILLE IL
900 PM CST SAT DEC 27 2014

NOTE: "FAIR" INDICATES FEW OR NO CLOUDS BELOW 12,000 FEET WITH NO
SIGNIFICANT WEATHER AND/OR OBSTRUCTIONS TO VISIBILITY.

* THESE STATIONS ARE NOT UNDER NWS QUALITY CONTROL. THEY ALSO MAY NOT
  REPORT WEATHER SUCH AS PRECIPITATION OR FOG.

ILZ001-002-007-009-015-016-024-280400-
NORTHWEST ILLINOIS

CITY           SKY/WX    TMP DP  RH WIND       PRES   REMARKS
MOLINE         MOCLDY    28  20  71 W12       30.18S WCI  18
STERLING*      CLOUDY    30  21  69 NW10      30.16R WCI  21
SAVANNA*       CLOUDY    29  23  79 W10       30.16S WCI  20
$$

ILZ003-004-008-010-011-017-018-280400-
NORTH CENTRAL ILLINOIS

CITY           SKY/WX    TMP DP  RH WIND       PRES   REMARKS
ROCKFORD       MOCLDY    30  23  75 W7        30.14R WCI  23
FREEPORT*      CLOUDY    29  24  80 W14       30.14S WCI  18
ROCHELLE*      CLOUDY    30  27  89 W10       30.13S WCI  21
DE KALB*       PTCLDY    28  25  87 W9        30.12R WCI  20
PERU*          PTCLDY    31  27  88 W9        30.16R WCI  22
$$

ILZ005-006-012>014-019>023-280400-
NORTHEAST ILLINOIS

CITY           SKY/WX    TMP DP  RH WIND       PRES   REMARKS
CHICAGO-OHARE  CLOUDY    32  25  75 W14       30.10R WCI  22
CHICAGO-MIDWAY CLOUDY    36  26  67 W10       30.10S WCI  28
AURORA         MOCLDY    30  25  81 W9        30.12R WCI  22
LANSING*       CLOUDY    34  26  74 NW7       30.11S WCI  28
JOLIET*        CLOUDY    32  26  80 W9        30.13R WCI  24
WAUKEGAN       CLOUDY    33  26  75 W5        30.08R WCI  29
DUPAGE AIRPORT MOCLDY    31  25  78 W9        30.10R WCI  23
KANKAKEE*      CLOUDY    32  28  86 W12       30.13S WCI  23
WHEELING       CLOUDY    33  25  72 W12       30.11S WCI  24
MORRIS*        MOCLDY    30  28  92 W7        30.13S WCI  23
ROMEOVILLE*    CLOUDY    32  27  83 W8        30.12R WCI  25
NORTHERLY ISL    N/A     35  26  70 W6          N/A  WCI  30
$$

LMZ740>746-280400-
SOUTHERN LAKE MICHIGAN

STATION/POSITION SKY/WX   TEMP    WIND        PRES    VSBY  WAVE
                          AIR SEA DIR/SP/G                  HT/PER
                          (F)     (DEG/KT/KT) (MB)    (MI)  (FT/S)
WAUKEGAN HARBOR            34     290/ 13/ 17   N/A
HARRISON CRIB              34     300/ 13/ 16   N/A
BURNHAM HARBOR             35     270/  7/ 14   N/A
CALUMET HARBOR             35     280/  9/ 12 1018.0S
MICHIGAN CITY              35     270/ 18/ 20   N/A
$$

ILZ025>027-034>036-040-047-049-050-058-095>099-280400-
WEST-CENTRAL ILLINOIS

CITY           SKY/WX    TMP DP  RH WIND       PRES   REMARKS
QUINCY         CLOUDY    31  23  72 W14       30.22R WCI  21
GALESBURG*     CLOUDY    28  24  82 W13       30.19S WCI  18
MACOMB*        CLOUDY    31  26  81 W14       30.23R WCI  20
JACKSONVILLE*  CLOUDY    34  28  79 NW10G16   30.21R WCI  26
PITTSFIELD*    CLOUDY    33  27  77 NW10      30.22S WCI  25
$$

ILZ028>032-037-038-041>044-048-051>054-059>061-280400-
CENTRAL ILLINOIS

CITY           SKY/WX    TMP DP  RH WIND       PRES   REMARKS
PONTIAC        MOCLDY    32  29  88 W8        30.15F WCI  25
BLOOMINGTON    CLOUDY    31  27  85 NW13      30.16S WCI  21
DECATUR        CLOUDY    33  28  81 NW10      30.17R WCI  25
PEORIA         CLOUDY    33  23  66 NW8       30.18S WCI  26
LACON*         CLOUDY    32  25  76 W7        30.17R WCI  25
LINCOLN*       CLOUDY    34  28  80 NW8       30.19S WCI  27
SPRINGFIELD    CLOUDY    33  26  75 NW13      30.19R WCI  24
TAYLORVILLE    CLOUDY    32  30  93 NW9       30.19S WCI  24
$$

ILZ033-039-045-046-055>057-062-063-280400-
EAST-CENTRAL ILLINOIS

CITY           SKY/WX    TMP DP  RH WIND       PRES   REMARKS
CHAMPAIGN      CLOUDY    34  30  85 NW13      30.15S WCI  25
DANVILLE*      CLOUDY    33  30  91 NW9       30.10F WCI  25
RANTOUL*       CLOUDY    34  31  88 NW10      30.16R WCI  26
MATTOON        CLOUDY    33  32  96 NW10      30.15S WCI  25
PARIS*         DRIZZLE   33  33  99 W7        30.15S WCI  27
$$

ILZ079-100>102-280400-
SOUTHWEST ILLINOIS

CITY           SKY/WX    TMP DP  RH WIND       PRES   REMARKS
ALTON          MOCLDY    34  34 100 NW6       30.19  WCI  29
BELLEVILLE     CLOUDY    36  35  99 NW7       30.20S WCI  30
CAHOKIA*       CLOUDY    37  33  85 NW9       30.21F WCI  30
SPARTA*        DRIZZLE   35  34  95 NW6       30.20F WCI  30
$$

ILZ064>066-069>071-074>076-080>082-084>086-088>090-092>094-280400-
SOUTH-CENTRAL ILLINOIS

CITY           SKY/WX    TMP DP  RH WIND       PRES   REMARKS
CARBONDALE     LGT RAIN  38  36  92 NW12      30.18F WCI  30
CAIRO*         LGT RAIN N/A N/A N/A N8        30.15S
EFFINGHAM*     LGT RAIN  36  32  88 W7        30.19R WCI  30
MARION         LGT RAIN  39  39 100 N7        30.17F WCI  34
MT. VERNON     CLOUDY    37  34  87 CALM      30.19R
CENTRALIA*     LGT RAIN  36  34  91 NW7       30.19R WCI  31
SALEM*         LGT RAIN  38  35  91 NW8       30.18S WCI  32
METROPOLIS*    RAIN      41  41 100 NE3       30.13F
$$

ILZ067-068-072-073-078-083-087-091-280400-
SOUTHEAST ILLINOIS

CITY           SKY/WX    TMP DP  RH WIND       PRES   REMARKS
LAWRENCEVILLE  RAIN      39  38  96 NW7       30.15F FOG     WCI  34
FLORA*         RAIN      37  37  98 NW8       30.18R WCI  31
FAIRFIELD*     LGT RAIN  38  37  96 NW3       30.17R
HARRISBURG*    RAIN      39  39  99 N6        30.18F WCI  35
ROBINSON*      LGT RAIN  38  37  97 NW5       30.16S WCI  34
CARMI*         RAIN      41  41 100 NW8       30.15S
$$

ABBREVIATIONS USED IN REMARKS
   TC - TEMPERATURE IN CELSIUS
  WCI - WIND CHILL INDEX
   HX - HEAT INDEX
  VSB - VISIBILITY
$$



USA.gov is the U.S. government's official web portal to all federal, state and local government web resources and services.